[[{"header":{"parameterUnit":"m.s-1","parameterCategory":2,"la1":30.2991,"la2":30.254,"lo1":-89.0895,"lo2":-89.0444,"dy":0.0017,"dx":0.0017,"nx":28,"ny":28,"refTime":"2024-07-23T21:00:00:Z","depth":"0","parameterNumber":2,"parameterNumberName":"U-component_of_CURRENTS"},"data":[0,0,0,0,0,0,0,0,0,0,0,0,0,0,0,0,0,0,0,0,0,0,0,0,0,0,0,0,0,0,0,0,0,0,0,0,0,0,0,0,0,0,0,0,0,0,0,0,0,0,0,0,0,0,0,0,0,0,0.2864,0.2864,0,0.291,0.2911,0.2911,0.2926,0.2926,0.2926,0.2926,0.2949,0.295,0.2951,0,0,0,0,0,0,0,0,0,0,0,0,0,0.2855,0.2855,0.2864,0.2864,0.2865,0.291,0.2911,0.2911,0.2926,0.2926,0.2926,0.2925,0.2949,0.295,0.2951,0,0,0,0,0,0,0,0,0,0,0,0,0,0.2877,0.2855,0.2864,0.2877,0.2879,0.291,0.2911,0.2911,0.2927,0.2926,0.2926,0.2925,0.2948,0.295,0.2951,0.2968,0,0,0.2955,0.2956,0,0,0,0,0,0,0,0,0.2875,0.2877,0.2875,0.2876,0.2878,0.2911,0.2916,0.2929,0.2927,0.2909,0.2926,0.2925,0.2934,0.2936,0.2948,0.2969,0.297,0.2955,0.2956,0.2956,0.2957,0,0,0,0,0,0,0,0.2874,0.2876,0.2883,0.2875,0.2877,0.2903,0.2906,0.2919,0.2924,0.2911,0.2912,0.2916,0.2935,0.2946,0.2948,0.297,0.2955,0.2956,0.2957,0.2958,0.303,0.3031,0,0,0,0,0,0,0.2863,0.2874,0.2882,0.2884,0.2875,0.2904,0.2906,0.2902,0.2924,0.2927,0.2916,0.2916,0.2944,0.2947,0.2949,0.3026,0.2956,0.2958,0.2958,0.3029,0.3031,0.3032,0,0,0,0,0,0,0.2863,0.2863,0.288,0.288,0.2884,0.2904,0.2899,0.2903,0.2916,0.2928,0.2931,0.2925,0.2944,0.2947,0.2972,0.3024,0.2958,0.296,0.3028,0.303,0.3031,0.3143,0,0,0,0,0,0,0.2862,0.2862,0.2861,0.2879,0.2883,0.2909,0.29,0.2904,0.2919,0.292,0.2937,0.2939,0.2944,0.297,0.2973,0.3025,0.2961,0.3027,0.3029,0.3031,0.3138,0.3148,0.3157,0,0,0,0,0,0.2861,0.2868,0.286,0.2862,0.2878,0.291,0.2916,0.2929,0.292,0.2937,0.2946,0.2938,0.2986,0.2972,0.2976,0.3029,0.3025,0.3028,0.3031,0.3133,0.3146,0.3157,0,0,0,0,0,0,0.2871,0.287,0.2862,0.2869,0.2889,0.2912,0.2932,0.2931,0.2952,0.2952,0.2953,0.2957,0.3002,0.2988,0.2973,0.3052,0.3004,0.3008,0.3081,0.3093,0.3103,0.3143,0.2962,0,0,0,0,0,0.2868,0.2866,0.2878,0.2884,0.2897,0.2911,0.2925,0.2933,0.2951,0.296,0.2971,0.2984,0.3016,0.303,0.3048,0.3088,0.3124,0.3121,0.313,0.3139,0.3172,0.3269,0.3292,0.304,0.304,0.304,0,0,0.287,0.2872,0.287,0.2886,0.2903,0.2949,0.292,0.2948,0.2993,0.2959,0.302,0.3019,0.3031,0.3087,0.3105,0.3083,0.3228,0.3142,0.315,0.3179,0.3274,0.3299,0.3322,0.3042,0.3042,0.3041,0,0,0.2891,0.2881,0.2895,0.2922,0.2948,0.2971,0.2979,0.3005,0.3025,0.3068,0.3068,0.3101,0.3125,0.3168,0.3187,0.3255,0.3276,0.3245,0.3337,0.343,0.3453,0.3474,0.3557,0.3584,0.3252,0.3253,0.3253,0,0.2895,0.2918,0.2908,0.2947,0.299,0.2986,0.3045,0.307,0.3102,0.3133,0.3098,0.3176,0.3179,0.328,0.3308,0.3286,0.3334,0.3296,0.3449,0.3469,0.3489,0.3569,0.3598,0.3258,0.3258,0.3257,0.3256,0,0.2935,0.2967,0.2988,0.3039,0.3084,0.313,0.3174,0.3215,0.3226,0.3245,0.3319,0.3325,0.3376,0.3379,0.337,0.3506,0.3495,0.3452,0.343,0.3522,0.3599,0.3627,0.3266,0.3264,0.3263,0.3261,0,0,0.2919,0.2997,0.3007,0.3067,0.3141,0.3191,0.328,0.3363,0.343,0.3439,0.353,0.3575,0.3559,0.358,0.3571,0.3648,0.3818,0.3616,0.3618,0.372,0.4037,0.3855,0.3868,0.3808,0.3813,0.3818,0.404,0,0.2961,0.3054,0.3089,0.3215,0.3284,0.334,0.3433,0.3505,0.3546,0.3624,0.3636,0.3704,0.3641,0.3675,0.3744,0.3791,0.3896,0.3763,0.3916,0.3921,0.3765,0.3895,0.3619,0.3778,0.4067,0.4072,0.4075,0,0.2999,0.3066,0.3182,0.3333,0.337,0.3447,0.3611,0.3685,0.3782,0.3812,0.3867,0.3866,0.3973,0.3898,0.4065,0.3982,0.4042,0.4073,0.4081,0.3897,0.3791,0.3729,0.3817,0.3722,0.4118,0.4114,0.4111,0,0.3016,0.3145,0.3247,0.3296,0.345,0.3531,0.3618,0.3736,0.3811,0.3932,0.3988,0.4077,0.4132,0.4218,0.4247,0.4189,0.4425,0.4345,0.4254,0.4242,0.4029,0.3986,0.4057,0.4523,0.4522,0.4521,0.4521,0,0.3064,0.3152,0.3262,0.3325,0.347,0.3566,0.3717,0.3806,0.3927,0.4007,0.4074,0.4144,0.422,0.432,0.4347,0.4377,0.4513,0.4318,0.4302,0.4053,0.4012,0.3931,0.3891,0.453,0.4528,0.4526,0.4525,0,0.3082,0.3143,0.3276,0.3432,0.348,0.3587,0.3758,0.3851,0.397,0.4082,0.4126,0.4245,0.4343,0.4415,0.456,0.4487,0.4408,0.4543,0.4231,0.4172,0.3889,0.3863,0.3826,0.3733,0.4461,0.4458,0.4456,0,0.31,0.3164,0.3328,0.3396,0.3469,0.3618,0.3709,0.3853,0.3929,0.4109,0.4147,0.4294,0.4313,0.4447,0.4391,0.443,0.4351,0.42,0.4016,0.3876,0.3841,0.3734,0.3652,0.3804,0.3796,0.379,0.3785,0,0.3145,0.3195,0.3296,0.3421,0.3524,0.3628,0.3749,0.3811,0.3954,0.4025,0.4091,0.4126,0.4205,0.4058,0.4103,0.4085,0.3935,0.4066,0.4026,0.3427,0.3218,0.3114,0.3669,0.3729,0.3735,0.3739,0.3742,0.3744,0.3163,0.3237,0.3341,0.3446,0.3534,0.3578,0.3594,0.3692,0.3749,0.375,0.3907,0.3828,0.3768,0.3728,0.3715,0.3482,0.3565,0.3312,0.3333,0.3271,0.3037,0.345,0.3403,0.3406,0.3409,0.3412,0.3414,0,0.3163,0.3241,0.3352,0.3434,0.3434,0.3502,0.3559,0.3505,0.3457,0.3491,0.3472,0.331,0.3152,0.3114,0.2921,0.2779,0.2693,0.2709,0.253,0.2519,0.2981,0.2801,0.249,0.249,0.249,0.249,0.249,0.249,0.3172,0.3239,0.3281,0.327,0.3293,0.3202,0.3166,0.31,0.3074,0.2879,0.272,0.2717,0.2733,0.2595,0.2395,0.2328,0.2218,0.2035,0.2183,0.2516,0.2574,0.263,0.2455,0.2076,0.2075,0.1556,0.1552,0.1549]},{"header":{"parameterUnit":"m.s-1","parameterCategory":2,"la1":30.2991,"la2":30.254,"lo1":-89.0895,"lo2":-89.0444,"dy":0.0017,"dx":0.0017,"nx":28,"ny":28,"refTime":"2024-07-23T21:00:00:Z","depth":"0","parameterNumber":3,"parameterNumberName":"V-component_of_CURRENTS"},"data":[0,0,0,0,0,0,0,0,0,0,0,0,0,0,0,0,0,0,0,0,0,0,0,0,0,0,0,0,0,0,0,0,0,0,0,0,0,0,0,0,0,0,0,0,0,0,0,0,0,0,0,0,0,0,0,0,0,0,-0.0249,-0.0249,0,-0.0295,-0.0296,-0.0296,-0.0342,-0.0342,-0.0342,-0.0343,-0.0386,-0.0387,-0.0387,0,0,0,0,0,0,0,0,0,0,0,0,0,-0.0228,-0.0228,-0.0249,-0.0249,-0.0249,-0.0295,-0.0296,-0.0297,-0.0342,-0.0342,-0.0343,-0.0343,-0.0386,-0.0387,-0.0388,0,0,0,0,0,0,0,0,0,0,0,0,0,-0.0254,-0.0228,-0.0249,-0.0275,-0.0278,-0.0295,-0.0296,-0.0297,-0.0342,-0.0342,-0.0343,-0.0343,-0.0385,-0.0386,-0.0388,-0.0384,0,0,-0.0391,-0.0392,0,0,0,0,0,0,0,0,-0.0252,-0.0255,-0.0271,-0.0274,-0.0277,-0.0311,-0.0304,-0.0325,-0.0341,-0.032,-0.0343,-0.0343,-0.0358,-0.0362,-0.0373,-0.0386,-0.0388,-0.0391,-0.0392,-0.0393,-0.0393,0,0,0,0,0,0,0,-0.025,-0.0253,-0.0269,-0.0271,-0.0275,-0.0295,-0.0299,-0.0309,-0.0337,-0.0322,-0.0325,-0.0326,-0.036,-0.0372,-0.0374,-0.0389,-0.0391,-0.0392,-0.0393,-0.0394,-0.04,-0.04,0,0,0,0,0,0,-0.0238,-0.0251,-0.0268,-0.0271,-0.0263,-0.0294,-0.0299,-0.0301,-0.0338,-0.0343,-0.0325,-0.0328,-0.0369,-0.0373,-0.0376,-0.0375,-0.0393,-0.0394,-0.0395,-0.0401,-0.04,-0.0399,0,0,0,0,0,0,-0.0237,-0.0239,-0.0266,-0.026,-0.0265,-0.0294,-0.0296,-0.0302,-0.0311,-0.034,-0.0346,-0.0328,-0.037,-0.0374,-0.0382,-0.0377,-0.0394,-0.0395,-0.0401,-0.04,-0.04,-0.0371,0,0,0,0,0,0,-0.0236,-0.0238,-0.0236,-0.0259,-0.0264,-0.027,-0.0295,-0.0302,-0.031,-0.0314,-0.0343,-0.0348,-0.0371,-0.038,-0.0383,-0.0379,-0.0396,-0.0402,-0.0401,-0.04,-0.0373,-0.037,-0.0367,0,0,0,0,0,-0.0235,-0.0226,-0.0235,-0.0237,-0.026,-0.0269,-0.0274,-0.0298,-0.0309,-0.0309,-0.0331,-0.0347,-0.0376,-0.0381,-0.0385,-0.038,-0.0403,-0.0401,-0.04,-0.0374,-0.037,-0.0367,0,0,0,0,0,0,-0.0218,-0.023,-0.0241,-0.0237,-0.0249,-0.0276,-0.0277,-0.0291,-0.0309,-0.0312,-0.0341,-0.0347,-0.0354,-0.0366,-0.037,-0.0378,-0.0391,-0.0391,-0.037,-0.0367,-0.0364,-0.0336,-0.0397,0,0,0,0,0,-0.021,-0.0206,-0.0224,-0.022,-0.0225,-0.0249,-0.0255,-0.027,-0.0288,-0.0297,-0.0317,-0.0336,-0.0351,-0.0358,-0.0373,-0.0374,-0.0355,-0.0372,-0.0369,-0.0366,-0.0346,-0.0314,-0.0305,-0.0395,-0.0395,-0.0395,0,0,-0.0203,-0.0208,-0.0207,-0.0216,-0.0229,-0.0232,-0.0255,-0.0259,-0.0265,-0.0297,-0.0308,-0.0326,-0.0348,-0.0356,-0.0359,-0.0366,-0.033,-0.0365,-0.0362,-0.0343,-0.0311,-0.0303,-0.0295,-0.0394,-0.0395,-0.0395,0,0,-0.0177,-0.0189,-0.0175,-0.0182,-0.0193,-0.0213,-0.021,-0.0232,-0.0246,-0.0254,-0.0281,-0.0285,-0.0313,-0.0324,-0.0335,-0.0317,-0.0315,-0.033,-0.0293,-0.0262,-0.0254,-0.0247,-0.0207,-0.0196,-0.0328,-0.0328,-0.0328,0,-0.0168,-0.0157,-0.0173,-0.0162,-0.0173,-0.0201,-0.0199,-0.0212,-0.0234,-0.0234,-0.0252,-0.0264,-0.0293,-0.0286,-0.0293,-0.0309,-0.0289,-0.0309,-0.0257,-0.0249,-0.0242,-0.0203,-0.0192,-0.0326,-0.0327,-0.0327,-0.0327,0,-0.0133,-0.0127,-0.012,-0.0123,-0.0137,-0.0137,-0.0163,-0.0172,-0.0193,-0.0197,-0.019,-0.0216,-0.0214,-0.0235,-0.0267,-0.0234,-0.0234,-0.0257,-0.0264,-0.0231,-0.0192,-0.0181,-0.0324,-0.0325,-0.0325,-0.0326,0,0,-0.0106,-0.0097,-0.0094,-0.0096,-0.0119,-0.0128,-0.0139,-0.0149,-0.013,-0.0147,-0.0107,-0.0152,-0.0142,-0.0152,-0.0179,-0.0166,-0.0117,-0.0193,-0.0192,-0.0148,-0.0036,-0.0079,-0.0071,-0.0133,-0.0131,-0.013,-0.0027,0,-0.0077,-0.005,-0.0062,-0.0057,-0.0057,-0.0092,-0.0097,-0.0108,-0.0107,-0.0069,-0.0077,-0.0046,-0.0117,-0.0098,-0.0099,-0.0104,-0.0086,-0.0141,-0.0077,-0.0075,-0.0114,-0.0059,-0.0063,0.0024,-0.0015,-0.0013,-0.0012,0,-0.0043,-0.0033,-0.0018,-0.003,-0.0032,-0.0033,-0.0044,-0.0043,-0.0005,0.0004,0.004,0.0057,0.0084,0.0027,0.0046,0.0015,-0.0005,-0.0016,-0.0013,-0.0051,-0.0097,-0.0016,0.0046,-0.0058,0.0006,0.0004,0.0003,0,-0.0022,-0.001,-0.0001,-0.0004,-0.0015,-0.0016,-0.0022,-0.0009,0.0037,0.0088,0.0166,0.0168,0.0238,0.0195,0.0163,0.0115,0.02,0.0134,0.0082,0.008,0.0092,0.0086,0.0067,0.0161,0.016,0.016,0.016,0,0.0004,0.0011,0.0018,0.0025,0.0042,0.0018,0.0073,0.0062,0.0144,0.0262,0.0234,0.0357,0.0287,0.033,0.0238,0.0213,0.0264,0.0116,0.011,0.0099,0.0093,0.0013,-0.0061,0.0164,0.0163,0.0162,0.0162,0,0.0025,0.003,0.0047,0.0052,0.0058,0.0074,0.0151,0.023,0.0265,0.0434,0.0477,0.0547,0.0583,0.0504,0.0475,0.0353,0.0237,0.0272,0.0265,0.0254,0.0051,-0.0021,-0.0031,-0.0079,0.0227,0.0226,0.0226,0,0.0042,0.0056,0.0081,0.0124,0.0135,0.018,0.0249,0.0283,0.0401,0.0575,0.0695,0.0779,0.0873,0.079,0.0581,0.043,0.0294,0.0298,0.0181,0.0064,-0.002,-0.0077,-0.0121,0.0221,0.0221,0.022,0.022,0,0.0081,0.0093,0.0122,0.0214,0.0286,0.0367,0.0475,0.0582,0.0688,0.0838,0.1051,0.1139,0.1057,0.0914,0.0661,0.0522,0.02,0.0284,0.0182,-0.0007,-0.0082,-0.0138,0.0132,0.0218,0.0218,0.0218,0.0218,0.0218,0.0131,0.0169,0.0241,0.0325,0.0424,0.057,0.0667,0.0828,0.1021,0.125,0.1307,0.1444,0.1181,0.0837,0.0637,0.022,0.0207,0.007,0.0004,-0.0032,-0.0125,0.0131,0.018,0.0181,0.0181,0.0181,0.0181,0,0.0223,0.0276,0.0364,0.0487,0.0634,0.0649,0.0844,0.0971,0.122,0.141,0.1572,0.1512,0.1194,0.082,0.0262,-0.001,-0.0111,-0.016,-0.0231,-0.0256,0.0006,-0.0045,-0.0065,-0.0065,-0.0065,-0.0065,-0.0065,-0.0064,0.0283,0.0391,0.0432,0.0662,0.0762,0.0948,0.106,0.1235,0.1384,0.1601,0.1669,0.1686,0.1405,0.0492,-0.0119,-0.0261,-0.0428,-0.0475,-0.0551,-0.0382,-0.0365,-0.035,-0.0415,-0.0512,-0.0512,-0.078,-0.0783,-0.0785]}],[{"header":{"parameterUnit":"m.s-1","parameterCategory":2,"la1":30.2991,"la2":30.254,"lo1":-89.0895,"lo2":-89.0444,"dy":0.0017,"dx":0.0017,"nx":28,"ny":28,"refTime":"2024-07-23T21:00:00:Z","depth":"2","parameterNumber":2,"parameterNumberName":"U-component_of_CURRENTS"},"data":[0,0,0,0,0,0,0,0,0,0,0,0,0,0,0,0,0,0,0,0,0,0,0,0,0,0,0,0,0,0,0,0,0,0,0,0,0,0,0,0,0,0,0,0,0,0,0,0,0,0,0,0,0,0,0,0,0,0,0.2277,0.2278,0,0.2317,0.2317,0.2317,0.2313,0.2313,0.2313,0.2313,0.2338,0.2338,0.2339,0,0,0,0,0,0,0,0,0,0,0,0,0,0.2223,0.2223,0.2277,0.2278,0.2279,0.2317,0.2317,0.2317,0.2313,0.2313,0.2313,0.2313,0.2337,0.2338,0.2339,0,0,0,0,0,0,0,0,0,0,0,0,0,0.2247,0.2223,0.2277,0.2287,0.2288,0.2317,0.2317,0.2317,0.2313,0.2313,0.2313,0.2312,0.2337,0.2338,0.2339,0.2347,0,0,0.2342,0.2343,0,0,0,0,0,0,0,0,0.2245,0.2248,0.2284,0.2286,0.2288,0.2316,0.2308,0.2329,0.2313,0.2296,0.2313,0.2312,0.2333,0.2335,0.2333,0.2348,0.2349,0.2343,0.2343,0.2344,0.2344,0,0,0,0,0,0,0,0.2243,0.2246,0.2286,0.2286,0.2288,0.2299,0.2301,0.2311,0.2309,0.2298,0.2299,0.2314,0.2333,0.2332,0.2334,0.2349,0.2343,0.2343,0.2344,0.2344,0.2425,0.2426,0,0,0,0,0,0,0.2251,0.2245,0.2285,0.2288,0.2274,0.23,0.2302,0.2301,0.2309,0.2313,0.2314,0.2314,0.233,0.2332,0.2335,0.241,0.2344,0.2345,0.2345,0.2423,0.2425,0.2427,0,0,0,0,0,0,0.2249,0.2253,0.2284,0.2274,0.2279,0.2301,0.23,0.2303,0.2314,0.2323,0.2325,0.2326,0.233,0.2333,0.2363,0.2409,0.2345,0.2346,0.2422,0.2424,0.2426,0.2519,0,0,0,0,0,0,0.2247,0.2252,0.2258,0.2274,0.228,0.2315,0.2301,0.2304,0.2326,0.2326,0.2334,0.2335,0.233,0.2361,0.2364,0.2409,0.2347,0.242,0.2423,0.2425,0.2514,0.2524,0.2533,0,0,0,0,0,0.2245,0.2257,0.2258,0.2264,0.2286,0.2316,0.232,0.2331,0.2327,0.2339,0.2347,0.2336,0.2381,0.2363,0.2366,0.2413,0.2418,0.2422,0.2425,0.251,0.2522,0.2532,0,0,0,0,0,0,0.2248,0.2259,0.226,0.2278,0.2302,0.2318,0.2337,0.2341,0.2354,0.2358,0.2353,0.2356,0.2404,0.2389,0.237,0.2442,0.2399,0.2403,0.2462,0.2474,0.2483,0.2538,0.2348,0,0,0,0,0,0.225,0.2256,0.2276,0.2295,0.2307,0.2321,0.2337,0.2347,0.2363,0.2369,0.2369,0.2382,0.2418,0.2429,0.2446,0.248,0.2508,0.2511,0.2521,0.2529,0.2575,0.2652,0.2673,0.2438,0.2438,0.2438,0,0,0.2253,0.2268,0.2269,0.2296,0.2312,0.2354,0.2329,0.2363,0.2399,0.2371,0.2407,0.2417,0.2435,0.2483,0.2502,0.2477,0.2605,0.2533,0.254,0.2583,0.2658,0.2681,0.2702,0.244,0.244,0.244,0,0,0.2271,0.228,0.2289,0.2313,0.2351,0.2384,0.2398,0.2415,0.242,0.2459,0.2461,0.2498,0.252,0.2553,0.2575,0.2643,0.2656,0.2643,0.2736,0.2809,0.283,0.2849,0.2897,0.2919,0.2643,0.2643,0.2644,0,0.2277,0.2304,0.2302,0.233,0.2368,0.2403,0.2444,0.2467,0.2491,0.2504,0.2483,0.2562,0.2564,0.266,0.2697,0.267,0.2712,0.2691,0.2825,0.2844,0.2862,0.2907,0.293,0.2648,0.2648,0.2647,0.2647,0,0.2302,0.2337,0.2355,0.2408,0.2441,0.2495,0.2531,0.2545,0.2565,0.2601,0.2668,0.2682,0.2734,0.2741,0.2753,0.2884,0.2873,0.2832,0.2802,0.2892,0.2932,0.2955,0.2655,0.2654,0.2652,0.2651,0,0,0.2292,0.2359,0.2369,0.239,0.2493,0.2507,0.2577,0.2648,0.2716,0.2727,0.2805,0.287,0.2892,0.2921,0.2929,0.3006,0.3155,0.2997,0.2998,0.3057,0.3329,0.3133,0.3139,0.3153,0.3158,0.3162,0.33,0,0.2327,0.2387,0.2424,0.2499,0.2538,0.258,0.2665,0.2721,0.2792,0.2873,0.2897,0.3007,0.296,0.3021,0.3083,0.315,0.3226,0.3123,0.3224,0.3227,0.3053,0.3162,0.2893,0.2978,0.3322,0.3326,0.3329,0,0.2347,0.2392,0.2472,0.2542,0.2564,0.2627,0.2742,0.2818,0.2954,0.3003,0.3093,0.3154,0.3271,0.3221,0.3368,0.3313,0.3352,0.3385,0.3389,0.3202,0.3076,0.2946,0.3006,0.3367,0.3364,0.3361,0.3359,0,0.233,0.241,0.248,0.2509,0.2622,0.2641,0.2712,0.2859,0.2957,0.3121,0.3223,0.3339,0.3411,0.3489,0.3518,0.3491,0.3667,0.3609,0.3466,0.3451,0.3239,0.3195,0.3745,0.3745,0.3745,0.3744,0.3744,0,0.2364,0.2395,0.247,0.2499,0.2585,0.2648,0.2797,0.2859,0.3058,0.319,0.3308,0.3401,0.3499,0.3579,0.3599,0.3582,0.3712,0.3528,0.3492,0.3255,0.3213,0.3559,0.3535,0.3749,0.3748,0.3747,0.3747,0,0.235,0.2405,0.2453,0.2547,0.2581,0.2631,0.2815,0.2942,0.3119,0.3285,0.3352,0.3503,0.358,0.3644,0.3758,0.3657,0.3686,0.3647,0.3343,0.3266,0.3412,0.3392,0.3538,0.3533,0.3528,0.3524,0.3521,0,0.2354,0.2403,0.2472,0.2516,0.2563,0.2673,0.2791,0.2952,0.309,0.3297,0.3361,0.3508,0.3505,0.3572,0.3511,0.3508,0.3612,0.3228,0.311,0.3451,0.3402,0.3388,0.3374,0.2876,0.2868,0.2861,0.2856,0,0.2389,0.2421,0.2497,0.2548,0.2622,0.2726,0.2863,0.2932,0.3115,0.3228,0.3279,0.3288,0.333,0.3153,0.3151,0.3109,0.32,0.3085,0.3578,0.2931,0.2826,0.2777,0.2786,0.2796,0.2802,0.2806,0.281,0.2812,0.2433,0.2455,0.2524,0.2595,0.2672,0.2692,0.269,0.2815,0.2893,0.291,0.3026,0.2927,0.2927,0.2749,0.266,0.2621,0.2838,0.2706,0.2729,0.2758,0.2617,0.2506,0.2391,0.2394,0.2397,0.24,0.2403,0,0.2423,0.2456,0.2542,0.2544,0.2585,0.2636,0.2695,0.263,0.2549,0.2617,0.2586,0.2329,0.22,0.2251,0.208,0.204,0.2054,0.1966,0.1974,0.2034,0.2087,0.1914,0.1501,0.1498,0.1495,0.1493,0,0,0.2394,0.2439,0.247,0.2464,0.2463,0.2375,0.233,0.2218,0.2197,0.203,0.1975,0.2074,0.2154,0.18,0.1746,0.1594,0.1807,0.1531,0.2257,0.2326,0.2376,0.2515,0.2313,0,0,0,0,0]},{"header":{"parameterUnit":"m.s-1","parameterCategory":2,"la1":30.2991,"la2":30.254,"lo1":-89.0895,"lo2":-89.0444,"dy":0.0017,"dx":0.0017,"nx":28,"ny":28,"refTime":"2024-07-23T21:00:00:Z","depth":"2","parameterNumber":3,"parameterNumberName":"V-component_of_CURRENTS"},"data":[0,0,0,0,0,0,0,0,0,0,0,0,0,0,0,0,0,0,0,0,0,0,0,0,0,0,0,0,0,0,0,0,0,0,0,0,0,0,0,0,0,0,0,0,0,0,0,0,0,0,0,0,0,0,0,0,0,0,0.0052,0.0051,0,0.002,0.002,0.002,-0.0005,-0.0005,-0.0005,-0.0005,-0.0031,-0.0032,-0.0032,0,0,0,0,0,0,0,0,0,0,0,0,0,0.0076,0.0075,0.0052,0.0051,0.0051,0.002,0.002,0.002,-0.0004,-0.0005,-0.0005,-0.0006,-0.0031,-0.0032,-0.0032,0,0,0,0,0,0,0,0,0,0,0,0,0,0.0058,0.0075,0.0052,0.0034,0.0032,0.002,0.002,0.0019,-0.0004,-0.0005,-0.0005,-0.0006,-0.0031,-0.0032,-0.0032,-0.0026,0,0,-0.0034,-0.0034,0,0,0,0,0,0,0,0,0.0059,0.0057,0.0037,0.0036,0.0033,0.001,0.0019,0.0004,-0.0004,0.0011,-0.0005,-0.0006,-0.0017,-0.0019,-0.0022,-0.0027,-0.0028,-0.0034,-0.0034,-0.0035,-0.0035,0,0,0,0,0,0,0,0.006,0.0058,0.004,0.0037,0.0034,0.0022,0.002,0.0016,0.0001,0.0009,0.0007,0.0002,-0.0018,-0.0022,-0.0023,-0.0029,-0.0034,-0.0035,-0.0035,-0.0035,-0.0042,-0.0042,0,0,0,0,0,0,0.0063,0.006,0.0041,0.0039,0.0044,0.0022,0.0019,0.0019,0.0001,-0.0003,0.0003,0.0001,-0.0021,-0.0022,-0.0024,-0.0017,-0.0035,-0.0035,-0.0036,-0.0043,-0.0042,-0.0042,0,0,0,0,0,0,0.0064,0.0062,0.0043,0.0047,0.0044,0.0023,0.0022,0.0019,0.0013,-0.0005,-0.0008,0.0,-0.0021,-0.0023,-0.0026,-0.0018,-0.0035,-0.0036,-0.0043,-0.0043,-0.0042,-0.0002,0,0,0,0,0,0,0.0065,0.0063,0.0064,0.0048,0.0044,0.004,0.0023,0.0018,0.001,0.0008,-0.0008,-0.0011,-0.0022,-0.0025,-0.0027,-0.0019,-0.0036,-0.0043,-0.0043,-0.0042,-0.0004,-0.0,0.0002,0,0,0,0,0,0.0066,0.0072,0.0064,0.0062,0.0046,0.004,0.0038,0.0021,0.001,0.0013,0.0001,-0.001,-0.0025,-0.0025,-0.0027,-0.0019,-0.0043,-0.0043,-0.0042,-0.0005,-0.0001,0.0002,0,0,0,0,0,0,0.0078,0.0069,0.0061,0.0062,0.0053,0.0036,0.0036,0.0023,0.0015,0.0014,-0.0005,-0.0008,-0.001,-0.002,-0.002,-0.0022,-0.0037,-0.0037,-0.0008,-0.0004,-0.0002,0.0017,-0.0037,0,0,0,0,0,0.0082,0.0088,0.0073,0.0074,0.0072,0.0054,0.0048,0.0039,0.0028,0.0024,0.0013,0.0001,-0.0009,-0.0011,-0.002,-0.0016,-0.0018,-0.0015,-0.0012,-0.0009,0.0004,0.0013,0.0019,-0.0041,-0.0041,-0.0041,0,0,0.0086,0.0082,0.0084,0.0077,0.0069,0.0073,0.005,0.0048,0.0054,0.0024,0.0031,0.0011,-0.0007,-0.0005,-0.0007,-0.0012,0.0004,-0.0009,-0.0006,0.0006,0.0014,0.002,0.0026,-0.0041,-0.0041,-0.0041,0,0,0.0105,0.0095,0.011,0.011,0.0103,0.0088,0.0088,0.0076,0.0075,0.0074,0.0054,0.0047,0.0028,0.0026,0.0019,0.0034,0.0017,0.0019,0.0053,0.0062,0.0067,0.0072,0.007,0.0074,0.0023,0.0023,0.0023,0,0.011,0.0126,0.0112,0.013,0.014,0.0097,0.0122,0.0108,0.0096,0.011,0.0081,0.0072,0.0048,0.0066,0.0057,0.0044,0.0036,0.0043,0.0067,0.0072,0.0076,0.0073,0.0077,0.0025,0.0024,0.0024,0.0024,0,0.0145,0.0158,0.0167,0.0177,0.0187,0.0194,0.0183,0.02,0.0182,0.0155,0.0167,0.0136,0.0137,0.0115,0.0082,0.0102,0.0082,0.0069,0.0063,0.0085,0.0079,0.0083,0.0027,0.0027,0.0026,0.0026,0,0,0.0157,0.0187,0.019,0.0232,0.0217,0.0246,0.0265,0.0278,0.0309,0.0265,0.0306,0.0253,0.0221,0.0212,0.0179,0.0169,0.0172,0.0124,0.0123,0.0129,0.0179,0.0132,0.0131,0.0158,0.0159,0.016,0.0161,0,0.0187,0.0245,0.0248,0.0313,0.0347,0.0354,0.0381,0.0391,0.0374,0.0394,0.0349,0.0344,0.0259,0.0266,0.0239,0.02,0.0184,0.0172,0.015,0.015,0.0112,0.0135,0.0141,0.014,0.0164,0.0165,0.0165,0,0.0224,0.0263,0.0329,0.0423,0.0442,0.0471,0.0557,0.0569,0.0561,0.0557,0.0533,0.0476,0.0454,0.038,0.0323,0.0316,0.0246,0.0202,0.0202,0.015,0.011,0.0122,0.0145,0.0171,0.0171,0.017,0.017,0,0.0269,0.0338,0.0402,0.0425,0.0494,0.0563,0.0596,0.0613,0.0659,0.0648,0.0683,0.0612,0.0619,0.0523,0.0393,0.0365,0.0328,0.0291,0.0185,0.0181,0.018,0.0174,0.0253,0.0253,0.0253,0.0253,0.0253,0,0.0309,0.0374,0.0437,0.048,0.0596,0.062,0.0725,0.0757,0.0793,0.085,0.0755,0.0806,0.0653,0.0598,0.0455,0.0334,0.0379,0.0202,0.0184,0.0191,0.0186,0.0208,0.0203,0.0253,0.0253,0.0253,0.0253,0,0.0352,0.0375,0.0477,0.0574,0.0618,0.0701,0.0829,0.0902,0.0914,0.1007,0.1015,0.0971,0.0888,0.0724,0.0585,0.0443,0.0314,0.0254,0.0259,0.0241,0.0144,0.0141,0.0155,0.0153,0.0152,0.0151,0.015,0,0.038,0.0423,0.0553,0.0635,0.0686,0.0805,0.0895,0.0952,0.1031,0.1115,0.1176,0.1123,0.1083,0.0849,0.059,0.0351,0.0316,0.0203,0.0144,0.0156,0.0137,0.0136,0.0135,0.0159,0.0158,0.0157,0.0157,0,0.0441,0.0474,0.0557,0.0718,0.0838,0.0964,0.1093,0.1186,0.1258,0.1335,0.1407,0.1376,0.1145,0.0891,0.0553,0.0383,0.0235,0.0181,0.0228,0.017,0.0156,0.0138,0.0138,0.0151,0.0152,0.0152,0.0153,0.0153,0.0492,0.0576,0.0687,0.0831,0.0951,0.11,0.1209,0.1335,0.146,0.1544,0.1539,0.1471,0.1216,0.0748,0.048,0.0188,0.0199,0.0087,0.0091,0.0096,0.0083,0.0066,0.0043,0.0043,0.0043,0.0043,0.0043,0,0.0583,0.0679,0.0816,0.0986,0.1093,0.115,0.1328,0.1406,0.1541,0.159,0.1601,0.134,0.1067,0.0767,0.0333,0.0083,0.0064,-0.0001,0.004,0.0047,0.0053,0.004,-0.0013,-0.0014,-0.0014,-0.0015,0,0,0.0659,0.0798,0.0862,0.1052,0.1162,0.1306,0.1397,0.1493,0.1545,0.1561,0.1508,0.1429,0.1114,0.0796,0.0468,0.0226,0.0185,0.0167,0.0235,0.0328,0.0337,0.0125,0.0114,0,0,0,0,0]}],[{"header":{"parameterUnit":"m.s-1","parameterCategory":2,"la1":30.2991,"la2":30.254,"lo1":-89.0895,"lo2":-89.0444,"dy":0.0017,"dx":0.0017,"nx":28,"ny":28,"refTime":"2024-07-23T21:00:00:Z","depth":"4","parameterNumber":2,"parameterNumberName":"U-component_of_CURRENTS"},"data":[0,0,0,0,0,0,0,0,0,0,0,0,0,0,0,0,0,0,0,0,0,0,0,0,0,0,0,0,0,0,0,0,0,0,0,0,0,0,0,0,0,0,0,0,0,0,0,0,0,0,0,0,0,0,0,0,0,0,0.1188,0.1188,0,0.1201,0.1201,0.1201,0.1191,0.1191,0.1191,0.1191,0.1222,0.1223,0.1223,0,0,0,0,0,0,0,0,0,0,0,0,0,0.1165,0.1165,0.1188,0.1188,0.1189,0.1201,0.1201,0.1201,0.1191,0.1191,0.1191,0.1191,0.1221,0.1222,0.1224,0,0,0,0,0,0,0,0,0,0,0,0,0,0.1173,0.1165,0.1188,0.1188,0.1188,0.1201,0.1201,0.1201,0.1191,0.1191,0.1191,0.119,0.1221,0.1222,0.1224,0.1237,0,0,0.1228,0.1229,0,0,0,0,0,0,0,0,0.1172,0.1173,0.1187,0.1188,0.1188,0.1197,0.1204,0.1215,0.1191,0.1187,0.1191,0.119,0.1217,0.1219,0.1217,0.1238,0.1239,0.1228,0.1229,0.123,0.123,0,0,0,0,0,0,0,0.1172,0.1173,0.119,0.1188,0.1188,0.1191,0.1191,0.1206,0.1201,0.1187,0.1187,0.1194,0.1217,0.1216,0.1218,0.124,0.1228,0.1229,0.123,0.1231,0.1335,0.1336,0,0,0,0,0,0,0.1176,0.1172,0.1189,0.119,0.1183,0.1192,0.1192,0.1192,0.12,0.1202,0.1194,0.1193,0.1213,0.1216,0.1219,0.1278,0.123,0.1231,0.1232,0.1333,0.1335,0.1337,0,0,0,0,0,0,0.1176,0.1178,0.1189,0.1185,0.1187,0.1193,0.1192,0.1192,0.1219,0.1206,0.1207,0.1224,0.1213,0.1217,0.1246,0.1278,0.1232,0.1233,0.1331,0.1334,0.1336,0.1369,0,0,0,0,0,0,0.1175,0.1177,0.119,0.1185,0.1187,0.1206,0.1193,0.1193,0.1223,0.1223,0.1232,0.1232,0.1213,0.1244,0.1247,0.1279,0.1234,0.1328,0.1332,0.1335,0.1365,0.1372,0.1379,0,0,0,0,0,0.1174,0.118,0.119,0.1193,0.1201,0.1207,0.1208,0.121,0.1225,0.1234,0.1243,0.1234,0.1269,0.1246,0.125,0.1282,0.1326,0.1331,0.1335,0.1362,0.1371,0.1378,0,0,0,0,0,0,0.1175,0.118,0.1191,0.1199,0.1212,0.1207,0.122,0.1233,0.1249,0.1258,0.1251,0.1252,0.1289,0.1289,0.1264,0.1326,0.1301,0.1306,0.132,0.1328,0.1335,0.133,0.1235,0,0,0,0,0,0.1185,0.1192,0.12,0.1213,0.1221,0.1234,0.1245,0.125,0.1259,0.1267,0.1276,0.1292,0.1307,0.132,0.1328,0.1363,0.1386,0.1392,0.1398,0.1404,0.1405,0.1472,0.1485,0.1351,0.1351,0.1351,0,0,0.1189,0.1196,0.1201,0.1215,0.1226,0.1225,0.1239,0.1262,0.1273,0.127,0.1298,0.1316,0.1323,0.135,0.137,0.1356,0.1457,0.1409,0.1413,0.1412,0.1478,0.1491,0.1503,0.1354,0.1354,0.1353,0,0,0.1191,0.1211,0.1215,0.1222,0.1246,0.1247,0.1265,0.1282,0.1305,0.1338,0.1339,0.1369,0.1404,0.1398,0.1404,0.1458,0.1489,0.1489,0.1517,0.1583,0.1594,0.1604,0.1658,0.1672,0.1493,0.1493,0.1493,0,0.1204,0.12,0.122,0.122,0.1214,0.126,0.125,0.1284,0.1313,0.1342,0.1353,0.143,0.1415,0.1459,0.1464,0.1468,0.1525,0.1481,0.1591,0.1601,0.1611,0.1663,0.1679,0.1495,0.1495,0.1495,0.1494,0,0.1194,0.1198,0.1202,0.1207,0.1205,0.1214,0.1241,0.1276,0.1321,0.1363,0.1448,0.1461,0.1518,0.1516,0.1496,0.1572,0.1597,0.1589,0.1565,0.1626,0.1678,0.1693,0.1498,0.1497,0.1497,0.1496,0,0,0.1201,0.1196,0.12,0.1186,0.1196,0.1189,0.1218,0.1257,0.1311,0.1389,0.1476,0.1494,0.1572,0.1584,0.1604,0.1633,0.1721,0.1648,0.1651,0.1692,0.1893,0.1724,0.1724,0.1761,0.1764,0.1766,0.1904,0,0.1191,0.1168,0.1168,0.1145,0.1123,0.1151,0.1179,0.1228,0.13,0.1409,0.15,0.1593,0.159,0.1645,0.1691,0.1712,0.1766,0.1685,0.1836,0.184,0.1674,0.1736,0.1775,0.1916,0.1919,0.1922,0.1924,0,0.1172,0.1152,0.1121,0.1101,0.1101,0.1113,0.1149,0.1193,0.1348,0.1415,0.1559,0.1669,0.1769,0.1759,0.1879,0.185,0.1885,0.189,0.1897,0.1733,0.1698,0.1843,0.1952,0.195,0.1948,0.1946,0.1944,0,0.1132,0.1113,0.1083,0.1073,0.1074,0.109,0.1122,0.1217,0.128,0.1468,0.1563,0.1729,0.1849,0.1923,0.1971,0.1956,0.2089,0.2067,0.1956,0.1946,0.2043,0.203,0.2161,0.2161,0.2161,0.216,0.216,0,0.1092,0.1069,0.108,0.1064,0.1071,0.1081,0.1145,0.1202,0.1342,0.1458,0.162,0.1742,0.1902,0.2018,0.2032,0.2043,0.2162,0.1969,0.197,0.2055,0.2042,0.2054,0.204,0.2165,0.2164,0.2163,0.2162,0,0.1028,0.1047,0.1013,0.1027,0.1055,0.1066,0.1157,0.1213,0.1344,0.1509,0.1588,0.1799,0.1926,0.204,0.2145,0.2103,0.2112,0.2088,0.2181,0.2185,0.1918,0.1905,0.1987,0.1982,0.1978,0.1975,0.1972,0,0.0981,0.0963,0.0988,0.1012,0.1033,0.1076,0.1128,0.122,0.1277,0.1523,0.16,0.181,0.194,0.1978,0.2059,0.2094,0.2061,0.2069,0.197,0.1907,0.1902,0.1895,0.1887,0.1965,0.1964,0.1963,0.1962,0,0.0883,0.092,0.0899,0.0962,0.1013,0.104,0.1121,0.1156,0.1301,0.1439,0.1589,0.1695,0.184,0.1907,0.1949,0.1961,0.2053,0.2025,0.2033,0.1941,0.1882,0.1879,0.1876,0.1948,0.195,0.1951,0.1952,0,0.0833,0.081,0.0845,0.0881,0.096,0.1008,0.1038,0.1112,0.1182,0.1432,0.148,0.1687,0.1844,0.1839,0.187,0.1867,0.1834,0.1767,0.1788,0.1805,0.167,0.1563,0.1541,0,0,0,0,0,0.0786,0.0771,0.0781,0.0825,0.09,0.0959,0.1041,0.1072,0.1228,0.1295,0.1377,0.1499,0.1596,0.167,0.1629,0.176,0.1821,0.1701,0.175,0.1869,0.1885,0.1736,0,0,0,0,0,0,0.0771,0.077,0.0746,0.0782,0.0827,0.0896,0.0954,0.1041,0.1053,0.123,0.1273,0.1408,0.1493,0.1624,0.1614,0.163,0.1624,0.1795,0.1791,0.1859,0.1874,0.1888,0.174,0,0,0,0,0]},{"header":{"parameterUnit":"m.s-1","parameterCategory":2,"la1":30.2991,"la2":30.254,"lo1":-89.0895,"lo2":-89.0444,"dy":0.0017,"dx":0.0017,"nx":28,"ny":28,"refTime":"2024-07-23T21:00:00:Z","depth":"4","parameterNumber":3,"parameterNumberName":"V-component_of_CURRENTS"},"data":[0,0,0,0,0,0,0,0,0,0,0,0,0,0,0,0,0,0,0,0,0,0,0,0,0,0,0,0,0,0,0,0,0,0,0,0,0,0,0,0,0,0,0,0,0,0,0,0,0,0,0,0,0,0,0,0,0,0,0.0188,0.0188,0,0.0187,0.0187,0.0187,0.0183,0.0183,0.0183,0.0183,0.0188,0.0188,0.0188,0,0,0,0,0,0,0,0,0,0,0,0,0,0.0177,0.0178,0.0188,0.0188,0.0188,0.0187,0.0187,0.0187,0.0183,0.0183,0.0183,0.0183,0.0188,0.0188,0.0188,0,0,0,0,0,0,0,0,0,0,0,0,0,0.018,0.0178,0.0188,0.0186,0.0186,0.0187,0.0187,0.0187,0.0183,0.0183,0.0183,0.0183,0.0188,0.0188,0.0188,0.0193,0,0,0.0189,0.0189,0,0,0,0,0,0,0,0,0.018,0.018,0.0186,0.0186,0.0186,0.0185,0.0185,0.0189,0.0183,0.0184,0.0183,0.0182,0.0188,0.0188,0.0188,0.0193,0.0193,0.0189,0.019,0.019,0.019,0,0,0,0,0,0,0,0.0179,0.018,0.0187,0.0186,0.0186,0.0182,0.0183,0.0186,0.0186,0.0184,0.0183,0.0184,0.0188,0.0187,0.0188,0.0193,0.0189,0.019,0.019,0.019,0.0197,0.0197,0,0,0,0,0,0,0.0181,0.018,0.0187,0.0187,0.0183,0.0183,0.0183,0.0185,0.0186,0.0186,0.0184,0.0184,0.0187,0.0188,0.0188,0.0213,0.019,0.019,0.019,0.0197,0.0197,0.0197,0,0,0,0,0,0,0.018,0.0181,0.0187,0.0184,0.0184,0.0183,0.0186,0.0185,0.0188,0.0186,0.0186,0.0187,0.0187,0.0188,0.0195,0.0212,0.019,0.019,0.0197,0.0197,0.0197,0.025,0,0,0,0,0,0,0.018,0.0181,0.0186,0.0184,0.0184,0.0193,0.0186,0.0185,0.0188,0.0188,0.0189,0.0189,0.0187,0.0195,0.0196,0.0212,0.0191,0.0197,0.0197,0.0197,0.0248,0.0252,0.0255,0,0,0,0,0,0.018,0.0188,0.0186,0.0187,0.019,0.0193,0.0194,0.0192,0.0189,0.0193,0.0193,0.0189,0.0195,0.0196,0.0196,0.0213,0.0197,0.0197,0.0197,0.0247,0.0251,0.0255,0,0,0,0,0,0,0.0184,0.0188,0.0186,0.0195,0.0196,0.0193,0.0198,0.0195,0.0198,0.0201,0.0195,0.0195,0.0206,0.0198,0.0198,0.0212,0.0193,0.0194,0.0231,0.0235,0.0238,0.0247,0.0191,0,0,0,0,0,0.0188,0.0197,0.0196,0.0203,0.0204,0.0201,0.0203,0.0204,0.0205,0.0206,0.0204,0.0203,0.0206,0.0211,0.0208,0.0222,0.019,0.0229,0.0233,0.0236,0.0242,0.0195,0.0195,0.0197,0.0197,0.0197,0,0,0.019,0.0195,0.0198,0.0205,0.0205,0.0223,0.0202,0.0211,0.0229,0.0207,0.0227,0.0215,0.0209,0.0223,0.0227,0.0221,0.0217,0.0236,0.0239,0.0243,0.0195,0.0195,0.0194,0.0197,0.0197,0.0197,0,0,0.0204,0.0204,0.0218,0.0227,0.0235,0.0238,0.0242,0.0243,0.0245,0.0258,0.0247,0.0243,0.0247,0.0248,0.025,0.0267,0.0232,0.0264,0.0297,0.0252,0.0252,0.0251,0.0209,0.0204,0.027,0.027,0.0271,0,0.0206,0.0232,0.0222,0.0244,0.0263,0.0249,0.0278,0.0279,0.0282,0.0287,0.0271,0.0266,0.0261,0.028,0.0287,0.0278,0.0242,0.0288,0.0257,0.0256,0.0254,0.0211,0.0205,0.0273,0.0273,0.0272,0.0272,0,0.0235,0.0263,0.0273,0.0302,0.0315,0.034,0.0344,0.0355,0.0352,0.0343,0.0346,0.0326,0.0324,0.0319,0.0313,0.0308,0.0282,0.0263,0.025,0.0257,0.0211,0.0204,0.0277,0.0276,0.0275,0.0274,0,0,0.023,0.0284,0.0291,0.0327,0.0357,0.0373,0.0406,0.0427,0.0448,0.0424,0.0437,0.0426,0.0395,0.0393,0.0375,0.034,0.0299,0.0303,0.0299,0.0267,0.0194,0.0185,0.0175,0.0269,0.0268,0.0268,0.0167,0,0.0262,0.0328,0.0343,0.0411,0.0451,0.0463,0.0496,0.051,0.0506,0.0509,0.0469,0.047,0.0429,0.0431,0.0387,0.0319,0.0281,0.0328,0.0187,0.0183,0.0179,0.0168,0.0265,0.0161,0.016,0.0158,0.0157,0,0.0293,0.034,0.0416,0.049,0.0505,0.0544,0.0601,0.0628,0.0624,0.0611,0.0587,0.0546,0.0505,0.0464,0.0339,0.0367,0.0289,0.0228,0.0222,0.0191,0.016,0.0151,0.0143,0.0145,0.0146,0.0147,0.0147,0,0.0317,0.0393,0.0463,0.049,0.0561,0.0603,0.0642,0.0664,0.0686,0.068,0.0678,0.0606,0.0573,0.0461,0.0326,0.0331,0.0171,0.0161,0.008,0.0078,0.0094,0.0096,0.0073,0.0073,0.0074,0.0074,0.0074,0,0.036,0.0417,0.0486,0.0531,0.0613,0.0647,0.0724,0.0745,0.0763,0.0784,0.0734,0.0715,0.0567,0.0459,0.0335,0.0176,0.0171,0.0082,0.005,0.0118,0.0123,0.0088,0.0091,0.007,0.0071,0.0072,0.0072,0,0.039,0.0431,0.0517,0.0603,0.0635,0.0697,0.0785,0.0826,0.0842,0.0869,0.0868,0.078,0.0643,0.0487,0.0296,0.0195,0.0045,-0.0007,0.0075,0.0049,-0.0019,-0.0012,-0.01,-0.0102,-0.0103,-0.0103,-0.0104,0,0.0413,0.0463,0.057,0.062,0.0669,0.0762,0.0821,0.0865,0.0891,0.0901,0.0895,0.0796,0.0719,0.0437,0.0271,0.0036,0.0008,-0.0068,-0.0037,-0.0014,-0.0037,-0.0028,-0.002,-0.0106,-0.0106,-0.0106,-0.0107,0,0.0454,0.0491,0.0557,0.0667,0.0742,0.0823,0.0901,0.0922,0.0961,0.0973,0.0913,0.0796,0.0641,0.043,0.0248,0.008,-0.002,-0.0079,-0.0078,-0.0049,-0.0022,-0.0041,-0.0032,-0.011,-0.011,-0.0109,-0.0109,0,0.0474,0.0522,0.0604,0.0702,0.0787,0.0855,0.0904,0.093,0.0955,0.0954,0.0923,0.0788,0.0699,0.0451,0.0276,0.0115,0.0084,0.0037,0.0032,0.0034,0.0105,0.0161,0.0099,0,0,0,0,0,0.0491,0.0546,0.0633,0.0729,0.0812,0.0867,0.0936,0.0967,0.0996,0.0958,0.0944,0.0806,0.0575,0.0463,0.0301,0.0254,0.0051,0.0058,-0.0007,-0.0129,-0.0125,-0.0066,0,0,0,0,0,0,0.0498,0.0575,0.0628,0.0726,0.0797,0.0884,0.0933,0.0959,0.0924,0.0933,0.0798,0.0765,0.052,0.0667,0.0297,0.025,0.0186,-0.0046,-0.005,-0.0132,-0.0128,-0.0125,-0.0062,0,0,0,0,0]}]]